Terug naar catalogus

QIANFAN-235

ActiefCommunicatiePO
NORAD 69864·PAYLOAD·🇨🇳 China

Gelanceerd Jul 5, 2026 vanaf Wenchang Space Launch Site

Loading…

Volgende Passages (komende 24 uur)

TLE

VersSource: Space-Track

Epoch: Sep 14, 2026, 12:13 UTC

1 69864U 26155S   26257.50916279 -.01812293  00000-0 -16229+1 0  9991
2 69864  89.0079  54.0789 0031111  23.2434 337.0137 13.88421792 10051

Volg QIANFAN-235 in realtime met AllMySat

Download on the App Store